Weather History for Pinedale, WY

Change the Weather History Date:

Thursday, December 13, 2012

  Actual Average (KBPI) Record (KBPI)
Temperature  
Mean Temperature 23 °F 12 °F  
Max Temperature 32 °F 26 °F 41 °F (1988)
Min Temperature 14 °F -1 °F -15 °F (1982)
Degree Days  
Heating Degree Days 42 52  
Month to date heating degree days 661  
Since 1 July heating degree days 3476  
Cooling Degree Days 0 0  
Month to date cooling degree days 0  
Year to date cooling degree days 35  
Moisture  
Dew Point 19 °F    
Average Humidity 87    
Maximum Humidity 100    
Minimum Humidity 64    
Precipitation  
Precipitation 0.00 in 0.01 in 0.02 in (2008)
Month to date precipitation 0.12  
Year to date precipitation 6.30  
Sea Level Pressure  
Sea Level Pressure 29.90 in    
Wind  
Wind Speed 3 mph (West)    
Max Wind Speed 8 mph    
Max Gust Speed -    
Visibility 10 miles    
Events      
T = Trace of Precipitation, MM = Missing Value Source: NWS Daily Summary

Daily Weather History Graph

Daily Weather History Graph

Search for Another Location

Airport:

Trip Planner

Search our weather history database for the weather conditions in past years. The results will help you decide how hot, cold, wet, or windy it might be!

Date:

Astronomy

Dec. 13, 2012 Rise Set
Actual Time 7:41 AM MST 4:45 PM MST
Civil Twilight 7:09 AM MST 5:17 PM MST
Nautical Twilight 6:33 AM MST 5:53 PM MST
Astronomical Twilight 5:59 AM MST 6:27 PM MST
Moon 7:53 AM MST (12/13) 5:32 PM MST (12/13)
Length of Visible Light 10h 08m
Length of Day
9h 03m
New Moon, 0% of the Moon is Illuminated
Dec 13
New Moon
Dec 19
First Quarter
Dec 28
Full
Jan 4
Last Quarter
Jan 11
New

Hourly Weather History & Observations

Time (MST) Temp. Windchill Dew Point Humidity Pressure Visibility Wind Dir Wind Speed Gust Speed Precip Events Conditions
12:15 AM 14.0 °F - 12.2 °F 93% 29.89 in 10.0 mi Calm Calm - N/A   Overcast
12:35 AM 14.0 °F 8.2 °F 12.2 °F 93% 29.90 in 10.0 mi West 3.5 mph - N/A   Overcast
12:55 AM 14.0 °F 6.5 °F 12.2 °F 93% 29.90 in 10.0 mi West 4.6 mph - N/A   Overcast
1:15 AM 14.0 °F 6.5 °F 14.0 °F 100% 29.90 in 10.0 mi West 4.6 mph - N/A   Overcast
1:35 AM 14.0 °F 5.1 °F 14.0 °F 100% 29.89 in 10.0 mi West 5.8 mph - N/A   Overcast
1:55 AM 15.8 °F 7.2 °F 14.0 °F 93% 29.89 in 10.0 mi West 5.8 mph - N/A   Overcast
2:15 AM 17.6 °F 12.3 °F 14.0 °F 86% 29.89 in 10.0 mi West 3.5 mph - N/A   Overcast
2:35 AM 17.6 °F 12.3 °F 15.8 °F 93% 29.90 in 10.0 mi West 3.5 mph - N/A   Overcast
2:55 AM 17.6 °F 9.3 °F 17.6 °F 100% 29.90 in 10.0 mi NW 5.8 mph - N/A   Overcast
3:15 AM 19.4 °F 14.3 °F 17.6 °F 93% 29.89 in 10.0 mi NW 3.5 mph - N/A   Overcast
3:35 AM 19.4 °F 14.3 °F 17.6 °F 93% 29.90 in 10.0 mi WNW 3.5 mph - N/A   Overcast
3:55 AM 19.4 °F - 17.6 °F 93% 29.89 in 10.0 mi Calm Calm - N/A   Overcast
4:15 AM 19.4 °F - 17.6 °F 93% 29.88 in 10.0 mi Calm Calm - N/A   Overcast
4:35 AM 19.4 °F 14.3 °F 17.6 °F 93% 29.89 in 10.0 mi West 3.5 mph - N/A   Overcast
4:55 AM 19.4 °F 12.8 °F 17.6 °F 93% 29.89 in 10.0 mi NW 4.6 mph - N/A   Overcast
5:15 AM 17.6 °F 12.3 °F 15.8 °F 93% 29.89 in 10.0 mi NNW 3.5 mph - N/A   Mostly Cloudy
5:35 AM 14.0 °F 8.2 °F 12.2 °F 93% 29.90 in 10.0 mi West 3.5 mph - N/A   Mostly Cloudy
5:55 AM 15.8 °F 8.6 °F 14.0 °F 93% 29.90 in 10.0 mi West 4.6 mph - N/A   Scattered Clouds
6:15 AM 15.8 °F 8.6 °F 14.0 °F 93% 29.91 in 10.0 mi West 4.6 mph - N/A   Overcast
6:35 AM 17.6 °F 12.3 °F 15.8 °F 93% 29.91 in 10.0 mi WNW 3.5 mph - N/A   Overcast
6:55 AM 17.6 °F 12.3 °F 17.6 °F 100% 29.92 in 10.0 mi West 3.5 mph - N/A   Overcast
7:15 AM 17.6 °F - 15.8 °F 93% 29.92 in 10.0 mi Calm Calm - N/A   Mostly Cloudy
7:35 AM 17.6 °F - 15.8 °F 93% 29.92 in 10.0 mi Calm Calm - N/A   Scattered Clouds
7:55 AM 15.8 °F 8.6 °F 14.0 °F 93% 29.93 in 10.0 mi West 4.6 mph - N/A   Scattered Clouds
8:15 AM 17.6 °F 10.7 °F 15.8 °F 93% 29.93 in 10.0 mi WNW 4.6 mph - N/A   Clear
8:35 AM 17.6 °F - 17.6 °F 100% 29.93 in 10.0 mi Calm Calm - N/A   Scattered Clouds
8:55 AM 19.4 °F - 17.6 °F 93% 29.95 in 10.0 mi Calm Calm - N/A   Mostly Cloudy
9:15 AM 19.4 °F - 17.6 °F 93% 29.95 in 10.0 mi Calm Calm - N/A   Mostly Cloudy
9:35 AM 21.2 °F - 19.4 °F 93% 29.95 in 10.0 mi Calm Calm - N/A   Overcast
9:55 AM 21.2 °F - 19.4 °F 93% 29.95 in 10.0 mi Calm Calm - N/A   Overcast
10:15 AM 23.0 °F - 19.4 °F 86% 29.96 in 10.0 mi Calm Calm - N/A   Overcast
10:35 AM 26.6 °F 21.2 °F 21.2 °F 80% 29.95 in 10.0 mi East 4.6 mph - N/A   Overcast
10:55 AM 26.6 °F 21.2 °F 21.2 °F 80% 29.95 in 10.0 mi ENE 4.6 mph - N/A   Overcast
11:15 AM 28.4 °F 24.6 °F 21.2 °F 74% 29.95 in 10.0 mi East 3.5 mph - N/A   Overcast
11:35 AM 28.4 °F 21.2 °F 21.2 °F 74% 29.94 in 10.0 mi ESE 6.9 mph - N/A   Overcast
11:55 AM 30.2 °F 23.4 °F 21.2 °F 69% 29.93 in 10.0 mi SE 6.9 mph - N/A   Overcast
12:15 PM 32.0 °F 24.8 °F 21.2 °F 64% 29.93 in 10.0 mi ESE 8.1 mph - N/A   Mostly Cloudy
12:35 PM 32.0 °F 25.6 °F 23.0 °F 69% 29.93 in 10.0 mi ESE 6.9 mph - N/A   Mostly Cloudy
12:55 PM 32.0 °F 25.6 °F 21.2 °F 64% 29.92 in 10.0 mi ESE 6.9 mph - N/A   Overcast
1:15 PM 32.0 °F 24.8 °F 23.0 °F 69% 29.91 in 10.0 mi East 8.1 mph - N/A   Overcast
1:35 PM 32.0 °F 25.6 °F 23.0 °F 69% 29.90 in 10.0 mi East 6.9 mph - N/A   Overcast
1:55 PM 32.0 °F 26.4 °F 23.0 °F 69% 29.90 in 10.0 mi ESE 5.8 mph - N/A   Overcast
2:15 PM 32.0 °F 27.5 °F 23.0 °F 69% 29.90 in 10.0 mi SSE 4.6 mph - N/A   Overcast
2:35 PM 32.0 °F 26.4 °F 23.0 °F 69% 29.89 in 10.0 mi SSE 5.8 mph - N/A   Overcast
2:55 PM 32.0 °F 25.6 °F 23.0 °F 69% 29.89 in 10.0 mi SSE 6.9 mph - N/A   Overcast
3:15 PM 32.0 °F 27.5 °F 23.0 °F 69% 29.89 in 10.0 mi SSE 4.6 mph - N/A   Overcast
3:35 PM 32.0 °F 28.7 °F 23.0 °F 69% 29.89 in 10.0 mi SSE 3.5 mph - N/A   Overcast
5:15 PM 28.4 °F - 23.0 °F 80% 29.89 in 10.0 mi Calm Calm - N/A   Mostly Cloudy
6:15 PM 28.4 °F - 21.2 °F 74% 29.89 in 10.0 mi Calm Calm - N/A   Overcast
6:35 PM 26.6 °F - 19.4 °F 74% 29.89 in 10.0 mi Calm Calm - N/A   Overcast
6:55 PM 23.0 °F - 21.2 °F 93% 29.89 in 10.0 mi Calm Calm - N/A   Overcast
7:15 PM 23.0 °F - 19.4 °F 86% 29.89 in 10.0 mi Calm Calm - N/A   Overcast
7:35 PM 24.8 °F - 21.2 °F 86% 29.89 in 10.0 mi Calm Calm - N/A   Overcast
7:55 PM 24.8 °F - 21.2 °F 86% 29.89 in 10.0 mi Calm Calm - N/A   Overcast
8:15 PM 24.8 °F - 21.2 °F 86% 29.88 in 10.0 mi Calm Calm - N/A   Overcast
8:35 PM 23.0 °F - 19.4 °F 86% 29.88 in 10.0 mi Calm Calm - N/A   Overcast
8:55 PM 23.0 °F - 21.2 °F 93% 29.88 in 10.0 mi Calm Calm - N/A   Overcast
9:15 PM 23.0 °F 18.4 °F 19.4 °F 86% 29.88 in 10.0 mi WNW 3.5 mph - N/A   Overcast
9:35 PM 23.0 °F 17.0 °F 21.2 °F 93% 29.88 in 10.0 mi NW 4.6 mph - N/A   Overcast
9:55 PM 24.8 °F 20.5 °F 21.2 °F 86% 29.87 in 10.0 mi NW 3.5 mph - N/A   Overcast
10:15 PM 23.0 °F 15.8 °F 21.2 °F 93% 29.88 in 10.0 mi WNW 5.8 mph - N/A   Overcast
10:35 PM 23.0 °F 17.0 °F 21.2 °F 93% 29.87 in 10.0 mi WNW 4.6 mph - N/A   Overcast
10:55 PM 21.2 °F 14.9 °F 19.4 °F 93% 29.87 in 10.0 mi WNW 4.6 mph - N/A   Overcast
11:15 PM 21.2 °F 13.6 °F 21.2 °F 100% 29.87 in 10.0 mi WNW 5.8 mph - N/A   Overcast
11:35 PM 21.2 °F 14.9 °F 21.2 °F 100% 29.87 in 10.0 mi NW 4.6 mph - N/A   Overcast
11:55 PM 21.2 °F 14.9 °F 19.4 °F 93% 29.87 in 10.0 mi West 4.6 mph - N/A   Overcast